Madison, WI

11:44 PM CDT on April 23, 2017 (GMT -0500)
Dane County Regional-Truax

Weather History for KMSN - March, 2013

Change the Weather History Date:

Monday, March 18, 2013

  Actual Average Record
Temperature  
Mean Temperature 25 °F 35 °F  
Max Temperature 33 °F 44 °F 81 °F (2012)
Min Temperature 16 °F 26 °F -2 °F (1959)
Degree Days  
Heating Degree Days 40 30  
Month to date heating degree days 720 606  
Since 1 July heating degree days 5878 6092  
Cooling Degree Days 0 0  
Month to date cooling degree days 0 0  
Year to date cooling degree days 0 0  
Moisture  
Dew Point 23 °F    
Average Humidity 77    
Maximum Humidity 92    
Minimum Humidity 62    
Precipitation  
Precipitation 0.30 in 0.07 in 0.80 in (1971)
Month to date precipitation 2.36 1.12  
Year to date precipitation 7.64 3.80  
Snow  
Snow 3.50 in 0.20 in 12.00 in (1971)
Month to date snowfall 11.8 4.7  
Since 1 July snowfall 66.9 45.8  
Snow Depth 5.00 in    
Sea Level Pressure  
Sea Level Pressure 29.70 in    
Wind  
Wind Speed 8 mph (South)    
Max Wind Speed 21 mph    
Max Gust Speed 31 mph    
Visibility 5 miles    
Events Fog , Snow    
T = Trace of Precipitation, MM = Missing Value Source: NWS Daily Summary

Daily Weather History Graph

Daily Weather History Graph

Search for Another Location

Airport or City:

Trip Planner

Search our weather history database for the weather conditions in past years. The results will help you decide how hot, cold, wet, or windy it might be!

Date:

Astronomy

Mar. 18, 2013 Rise Set
Actual Time 7:03 AM CDT 7:07 PM CDT
Civil Twilight 6:35 AM CDT 7:35 PM CDT
Nautical Twilight 6:02 AM CDT 8:09 PM CDT
Astronomical Twilight 5:28 AM CDT 8:43 PM CDT
Moon 10:54 AM CDT (3/18) 1:15 AM CDT (3/18)
Length of Visible Light 13h 00m
Length of Day
12h 03m
Waxing Crescent, 41% of the Moon is Illuminated
Mar 18
Waxing Crescent
Mar 19
First Quarter
Mar 27
Full
Apr 2
Last Quarter
Apr 10
New

Hourly Weather History & Observations

Time (CDT) Temp. Windchill Dew Point Humidity Pressure Visibility Wind Dir Wind Speed Gust Speed Precip Events Conditions
12:53 AM 24.1 °F 18.2 °F 18.0 °F 77% 29.99 in 10.0 mi East 4.6 mph - N/A   Clear
1:53 AM 23.0 °F 18.4 °F 18.0 °F 81% 29.97 in 10.0 mi ENE 3.5 mph - N/A   Clear
2:53 AM 21.9 °F 15.7 °F 18.0 °F 85% 29.94 in 10.0 mi ENE 4.6 mph - N/A   Clear
3:53 AM 19.9 °F - 17.1 °F 89% 29.91 in 10.0 mi Calm Calm - N/A   Clear
4:53 AM 23.0 °F 14.7 °F 19.0 °F 85% 29.87 in 10.0 mi East 6.9 mph - N/A   Overcast
5:10 AM 26.6 °F 19.1 °F 21.2 °F 80% 29.83 in 10.0 mi East 6.9 mph - N/A   Overcast
5:53 AM 27.0 °F 19.5 °F 21.9 °F 81% 29.84 in 10.0 mi ESE 6.9 mph - N/A   Overcast
6:07 AM 26.6 °F 19.1 °F 21.2 °F 80% 29.80 in 10.0 mi East 6.9 mph - N/A   Overcast
6:53 AM 28.0 °F 18.6 °F 23.0 °F 81% 29.83 in 10.0 mi ESE 10.4 mph - N/A   Overcast
7:53 AM 28.9 °F 21.1 °F 24.1 °F 82% 29.80 in 8.0 mi ESE 8.1 mph - 0.00 in Snow Light Snow
8:38 AM 28.4 °F 20.4 °F 24.8 °F 86% 29.74 in 2.5 mi ESE 8.1 mph - 0.00 in Snow Light Snow
8:46 AM 28.4 °F 20.4 °F 24.8 °F 86% 29.74 in 1.8 mi ESE 8.1 mph - 0.00 in Snow Light Snow
8:53 AM 28.9 °F 21.1 °F 26.1 °F 89% 29.77 in 1.5 mi ESE 8.1 mph - 0.00 in Snow Light Snow
9:17 AM 28.4 °F 21.2 °F 26.6 °F 93% 29.72 in 2.0 mi East 6.9 mph - 0.00 in Snow Light Snow
9:33 AM 28.4 °F 21.2 °F 26.6 °F 93% 29.70 in 1.8 mi East 6.9 mph - 0.00 in Snow Light Snow
9:36 AM 28.4 °F 20.4 °F 26.6 °F 93% 29.70 in 1.5 mi East 8.1 mph - 0.00 in Snow Light Snow
9:53 AM 28.9 °F 25.2 °F 26.1 °F 89% 29.73 in 0.8 mi East 3.5 mph - 0.01 in Snow Light Snow
10:25 AM 28.4 °F 23.3 °F 26.6 °F 93% 29.70 in 0.5 mi ESE 4.6 mph - 0.03 in Fog , Snow Snow
10:53 AM 28.9 °F 22.8 °F 27.0 °F 92% 29.72 in 0.5 mi ESE 5.8 mph - 0.07 in Fog , Snow Snow
11:46 AM 30.2 °F 23.4 °F 26.6 °F 86% 29.66 in 0.5 mi SE 6.9 mph - 0.08 in Fog , Snow Snow
11:53 AM 30.0 °F 23.2 °F 27.0 °F 88% 29.70 in 0.5 mi SE 6.9 mph - 0.09 in Fog , Snow Snow
12:01 PM 28.4 °F 20.4 °F 26.6 °F 93% 29.66 in 0.2 mi ESE 8.1 mph - 0.01 in Fog , Snow Snow
12:06 PM 30.2 °F 24.3 °F 26.6 °F 86% 29.65 in 0.5 mi ESE 5.8 mph - 0.01 in Fog , Snow Snow
12:13 PM 30.2 °F 25.4 °F 28.4 °F 93% 29.65 in 0.5 mi SE 4.6 mph - 0.02 in Fog , Snow Snow
12:31 PM 30.2 °F 21.9 °F 26.6 °F 86% 29.64 in 1.0 mi SSE 9.2 mph - 0.02 in Snow Light Snow
12:38 PM 30.2 °F 22.6 °F 28.4 °F 93% 29.64 in 0.8 mi South 8.1 mph - 0.03 in Snow Light Snow
12:53 PM 30.0 °F 23.2 °F 28.0 °F 92% 29.68 in 0.8 mi South 6.9 mph - 0.04 in Snow Light Snow
1:31 PM 30.2 °F 24.3 °F 28.4 °F 93% 29.61 in 0.2 mi South 5.8 mph - 0.02 in Fog , Snow Heavy Snow
1:49 PM 30.2 °F 23.4 °F 28.4 °F 93% 29.61 in 0.5 mi South 6.9 mph - 0.04 in Fog , Snow Snow
1:53 PM 30.0 °F 24.1 °F 28.9 °F 96% 29.64 in 0.5 mi South 5.8 mph - 0.04 in Fog , Snow Snow
2:05 PM 30.2 °F 25.4 °F 28.4 °F 93% 29.59 in 0.2 mi South 4.6 mph - 0.02 in Fog , Snow Snow
2:26 PM 30.2 °F 25.4 °F 30.2 °F 100% 29.59 in 0.8 mi SSW 4.6 mph - 0.04 in Snow Light Snow
2:35 PM 32.0 °F 27.5 °F 30.2 °F 93% 29.59 in 1.0 mi Variable 4.6 mph - 0.04 in Snow Light Snow
2:46 PM 32.0 °F 26.4 °F 28.4 °F 87% 29.58 in 3.0 mi SSW 5.8 mph - 0.04 in Snow Light Snow
2:53 PM 32.0 °F 27.5 °F 28.9 °F 88% 29.61 in 6.0 mi SSW 4.6 mph - 0.04 in   Overcast
3:14 PM 32.0 °F 28.7 °F 28.4 °F 87% 29.58 in 7.0 mi Variable 3.5 mph - N/A   Overcast
3:31 PM 32.0 °F 25.6 °F 28.4 °F 87% 29.58 in 2.5 mi SW 6.9 mph - 0.00 in Snow Light Snow
3:40 PM 32.0 °F 26.4 °F 28.4 °F 87% 29.58 in 1.0 mi SW 5.8 mph - 0.00 in Snow Light Snow
3:53 PM 32.0 °F 27.5 °F 28.9 °F 88% 29.61 in 1.0 mi Variable 4.6 mph - 0.01 in Snow Light Snow
4:11 PM 32.0 °F 26.4 °F 28.4 °F 87% 29.58 in 2.0 mi SW 5.8 mph - 0.00 in Snow Light Snow
4:40 PM 33.8 °F 27.7 °F 28.4 °F 81% 29.57 in 6.0 mi WSW 6.9 mph - 0.00 in   Haze
4:53 PM 33.1 °F 28.7 °F 28.0 °F 82% 29.60 in 5.0 mi WSW 4.6 mph - 0.00 in Snow Light Snow
5:51 PM 30.2 °F 18.9 °F 26.6 °F 86% 29.58 in 3.0 mi West 16.1 mph 24.2 mph 0.00 in Snow Light Snow
5:53 PM 28.9 °F 17.7 °F 26.1 °F 89% 29.62 in 3.0 mi West 15.0 mph 27.6 mph 0.00 in   Overcast
6:06 PM 28.4 °F 18.0 °F 24.8 °F 86% 29.59 in 5.0 mi West 12.7 mph 24.2 mph N/A   Overcast
6:53 PM 25.0 °F 14.2 °F 18.0 °F 75% 29.65 in 7.0 mi West 11.5 mph 27.6 mph N/A   Overcast
7:43 PM 24.8 °F 13.4 °F 15.8 °F 69% 29.66 in 10.0 mi West 12.7 mph 26.5 mph N/A   Overcast
7:53 PM 23.0 °F 10.6 °F 15.1 °F 72% 29.69 in 10.0 mi West 13.8 mph 20.7 mph N/A   Overcast
8:34 PM 19.4 °F 6.6 °F 10.4 °F 68% 29.68 in 10.0 mi West 12.7 mph 25.3 mph N/A   Overcast
8:53 PM 19.9 °F 7.3 °F 10.0 °F 65% 29.73 in 10.0 mi West 12.7 mph 31.1 mph N/A   Overcast
9:53 PM 19.0 °F 5.6 °F 9.0 °F 65% 29.75 in 10.0 mi West 13.8 mph 27.6 mph N/A   Mostly Cloudy
10:32 PM 17.6 °F 5.0 °F 10.4 °F 73% 29.71 in 10.0 mi West 11.5 mph 17.3 mph N/A   Mostly Cloudy
10:53 PM 19.0 °F 7.5 °F 10.0 °F 68% 29.76 in 10.0 mi West 10.4 mph 23.0 mph N/A   Overcast
11:00 PM 17.6 °F 6.4 °F 10.4 °F 73% 29.72 in 10.0 mi West 9.2 mph 20.7 mph N/A   Overcast
11:53 PM 18.0 °F 5.4 °F 9.0 °F 68% 29.76 in 10.0 mi West 11.5 mph 21.9 mph 0.00 in Snow Light Snow